Location: Grust
(42.8833°N, 0.0333°W)
Time: 13:12:10
(UTC+00:00)

Cosmos 2227 Rocket - Pass Details

Date: 25 October 2020
Orbit: 839 x 845 km, 71.0° (Epoch: 25 November)

Event Time Altitude Azimuth Distance (km) Brightness Sun altitude
Rises 17:51:10 0° 342° (NNW) 3,406 5.5 -9.7°
Reaches altitude 10° 17:53:56 10° 354° (N) 2,468 4.6 -10.2°
Maximum altitude 17:58:52 30° 54° (NE) 1,472 3.0 -11.1°
Enters shadow 18:03:26 12° 113° (ESE) 2,350 4.0 -11.9°
